TOM5TJ EGCC-LGSK

Flight info

Callsign TOM5TJ
Flight time N/A
Altitude 35000
Route DESIG L603 DOLAS DCT NAVPI DCT ALFEN DCT DOJOH DCT DODEN DCT NEGIX DCT DINKU DCT BESNI DCT LATLO DCT OBEDI DCT NAKUM DCT OLEZE DCT TEBLI DCT BOSNA DCT PODOB DCT MEDUX UM867 KOGAT DCT ERANA UL737 TSL UL617 IBIDI
Aircraft B752/M-SDE2E3FGHIJ3J4J7RWXY/LB1

Departure

Time N/A
Airport Manchester Airport (EGCC)

Arrival

Time 2026-05-06 17:58
Airport Skiathos Island National Airport (LGSK)
Time Latitude Longitude Altitude Speed Heading
2026-05-06 15:44 51.04687 7.30266 34819 ft 475 kts 128°
2026-05-06 15:44 51.00764 7.38586 34817 ft 475 kts 129°
2026-05-06 15:45 50.96810 7.46943 34812 ft 475 kts 129°
2026-05-06 15:45 50.92846 7.55295 34804 ft 476 kts 129°
2026-05-06 15:46 50.88884 7.63617 34795 ft 476 kts 129°
2026-05-06 15:46 50.85012 7.71707 34794 ft 475 kts 131°
2026-05-06 15:47 50.80463 7.79122 34808 ft 473 kts 139°
2026-05-06 15:47 50.75716 7.86306 34799 ft 472 kts 139°
2026-05-06 15:48 50.70992 7.93364 34799 ft 472 kts 139°
2026-05-06 15:48 50.66199 8.00477 34800 ft 471 kts 139°
2026-05-06 15:49 50.61462 8.07486 34800 ft 470 kts 139°
2026-05-06 15:49 50.57231 8.15286 34806 ft 474 kts 131°
2026-05-06 15:50 50.53114 8.23334 34803 ft 475 kts 131°
2026-05-06 15:50 50.49004 8.31375 34797 ft 474 kts 131°
2026-05-06 15:51 50.44871 8.39446 34794 ft 475 kts 131°
2026-05-06 15:51 50.40756 8.47464 34790 ft 474 kts 131°
2026-05-06 15:52 50.36605 8.55387 34786 ft 473 kts 135°
2026-05-06 15:52 50.32125 8.62795 34784 ft 473 kts 136°
2026-05-06 15:53 50.27699 8.70158 34780 ft 470 kts 137°
2026-05-06 15:53 50.23218 8.77613 34773 ft 471 kts 137°
2026-05-06 15:54 50.18754 8.85029 34770 ft 470 kts 137°
2026-05-06 15:54 50.14304 8.92407 34763 ft 470 kts 137°
2026-05-06 15:55 50.09812 8.99832 34757 ft 471 kts 137°
2026-05-06 15:55 50.05341 9.07201 34765 ft 471 kts 137°
2026-05-06 15:56 50.00859 9.14570 34771 ft 470 kts 137°
2026-05-06 15:56 49.96359 9.21943 34774 ft 470 kts 138°
2026-05-06 15:57 49.91879 9.29264 34776 ft 470 kts 138°
2026-05-06 15:57 49.87424 9.36523 34789 ft 468 kts 138°
2026-05-06 15:58 49.82986 9.43733 34784 ft 468 kts 138°
2026-05-06 15:58 49.78503 9.50998 34783 ft 468 kts 138°
2026-05-06 15:59 49.74012 9.58254 34781 ft 466 kts 138°
2026-05-06 15:59 49.69639 9.65296 34777 ft 468 kts 139°
2026-05-06 16:00 49.65142 9.72521 34776 ft 465 kts 139°
2026-05-06 16:00 49.60659 9.79702 34775 ft 467 kts 139°
2026-05-06 16:01 49.56202 9.86822 34780 ft 466 kts 140°
2026-05-06 16:01 49.51703 9.93989 34782 ft 466 kts 140°
2026-05-06 16:02 49.47212 10.01121 34780 ft 465 kts 140°
2026-05-06 16:02 49.42704 10.08262 34779 ft 465 kts 140°
2026-05-06 16:03 49.38213 10.15355 34789 ft 465 kts 140°
2026-05-06 16:03 49.33714 10.22440 34795 ft 466 kts 140°
2026-05-06 16:04 49.29200 10.29532 34791 ft 466 kts 140°
2026-05-06 16:04 49.24666 10.36633 34786 ft 466 kts 140°
2026-05-06 16:05 49.20083 10.43545 34790 ft 466 kts 141°
2026-05-06 16:05 49.15463 10.50411 34788 ft 464 kts 141°
2026-05-06 16:06 49.10866 10.57226 34793 ft 465 kts 141°
2026-05-06 16:06 49.06224 10.64089 34790 ft 464 kts 141°
2026-05-06 16:07 49.01647 10.70835 34774 ft 465 kts 142°
2026-05-06 16:07 48.96996 10.77675 34775 ft 464 kts 142°
2026-05-06 16:08 48.92350 10.84488 34750 ft 465 kts 142°
2026-05-06 16:08 48.87738 10.91234 34816 ft 464 kts 142°
2026-05-06 16:09 48.83114 10.97977 34768 ft 464 kts 142°
2026-05-06 16:09 48.78462 11.04746 34787 ft 466 kts 142°
2026-05-06 16:10 48.73810 11.11493 34788 ft 466 kts 142°
2026-05-06 16:10 48.69130 11.18264 34788 ft 466 kts 142°
2026-05-06 16:11 48.64452 11.25026 34783 ft 466 kts 141°
2026-05-06 16:11 48.60054 11.32304 34791 ft 472 kts 139°
2026-05-06 16:12 48.55652 11.39632 34786 ft 470 kts 139°
2026-05-06 16:12 48.51270 11.46903 34780 ft 470 kts 139°
2026-05-06 16:13 48.46867 11.54181 34787 ft 473 kts 139°
2026-05-06 16:13 48.42459 11.61449 34783 ft 472 kts 139°
2026-05-06 16:14 48.38084 11.68643 34779 ft 472 kts 140°
2026-05-06 16:14 48.33667 11.75887 34767 ft 471 kts 140°
2026-05-06 16:15 48.29224 11.83149 34779 ft 473 kts 140°
2026-05-06 16:15 48.24771 11.90408 34780 ft 474 kts 140°
2026-05-06 16:16 48.20329 11.97634 34772 ft 473 kts 140°
2026-05-06 16:16 48.15861 12.04875 34760 ft 476 kts 140°
2026-05-06 16:17 48.11380 12.12124 34758 ft 477 kts 140°
2026-05-06 16:17 48.06851 12.19426 34760 ft 477 kts 140°
2026-05-06 16:18 48.02383 12.26610 34751 ft 476 kts 140°
2026-05-06 16:18 47.97887 12.33823 34751 ft 475 kts 140°
2026-05-06 16:19 47.93373 12.41042 34775 ft 474 kts 140°
2026-05-06 16:19 47.88896 12.48179 34776 ft 477 kts 140°
2026-05-06 16:20 47.84388 12.55352 34783 ft 473 kts 140°
2026-05-06 16:20 47.79906 12.62459 34793 ft 476 kts 140°
2026-05-06 16:21 47.75375 12.69627 34783 ft 477 kts 141°
2026-05-06 16:21 47.70841 12.76782 34798 ft 475 kts 141°
2026-05-06 16:22 47.66272 12.83799 34802 ft 473 kts 142°
2026-05-06 16:22 47.61625 12.90665 34823 ft 475 kts 142°
2026-05-06 16:23 47.56947 12.97574 34833 ft 473 kts 142°
2026-05-06 16:23 47.52299 13.04417 34826 ft 474 kts 142°
2026-05-06 16:24 47.47635 13.11266 34851 ft 474 kts 142°
2026-05-06 16:24 47.42986 13.18077 34846 ft 473 kts 142°
2026-05-06 16:25 47.38298 13.24925 34843 ft 475 kts 142°
2026-05-06 16:25 47.33614 13.31750 34857 ft 476 kts 142°
2026-05-06 16:26 47.29186 13.39115 34870 ft 482 kts 136°
2026-05-06 16:26 47.24866 13.46577 34872 ft 482 kts 136°
2026-05-06 16:27 47.20522 13.54042 34880 ft 481 kts 136°
2026-05-06 16:27 47.16153 13.61525 34864 ft 480 kts 136°
2026-05-06 16:28 47.11944 13.68707 34859 ft 480 kts 137°
2026-05-06 16:28 47.07599 13.76101 34867 ft 481 kts 136°
2026-05-06 16:29 47.03226 13.83523 34861 ft 482 kts 136°
2026-05-06 16:29 46.98863 13.90909 34872 ft 481 kts 136°
2026-05-06 16:30 46.95206 13.97083 34880 ft 482 kts 136°
2026-05-06 16:30 46.90089 14.05701 34896 ft 481 kts 136°
2026-05-06 16:31 46.85812 14.12881 34893 ft 483 kts 136°
2026-05-06 16:31 46.81410 14.20253 34895 ft 481 kts 136°
2026-05-06 16:32 46.77034 14.27559 34899 ft 483 kts 136°
2026-05-06 16:32 46.72605 14.34929 34890 ft 481 kts 136°
2026-05-06 16:33 46.68107 14.42061 34901 ft 481 kts 137°
2026-05-06 16:34 46.61329 14.52744 34897 ft 480 kts 137°
2026-05-06 16:34 46.56774 14.59899 34897 ft 481 kts 137°
2026-05-06 16:35 46.52271 14.66957 34905 ft 480 kts 138°
2026-05-06 16:35 46.47727 14.74058 34907 ft 481 kts 138°
2026-05-06 16:36 46.43194 14.81124 34899 ft 479 kts 138°
2026-05-06 16:36 46.38650 14.88188 34894 ft 480 kts 138°
2026-05-06 16:37 46.34131 14.95196 34896 ft 479 kts 138°
2026-05-06 16:37 46.29598 15.02206 34890 ft 479 kts 138°
2026-05-06 16:38 46.25053 15.09217 34885 ft 480 kts 137°
2026-05-06 16:38 46.20472 15.16266 34883 ft 480 kts 137°
2026-05-06 16:39 46.15904 15.23276 34883 ft 480 kts 137°
2026-05-06 16:39 46.11363 15.30228 34886 ft 479 kts 137°
2026-05-06 16:40 46.06820 15.37221 34892 ft 481 kts 137°
2026-05-06 16:40 46.02246 15.44258 34895 ft 481 kts 137°
2026-05-06 16:41 45.97701 15.51232 34904 ft 479 kts 137°
2026-05-06 16:41 45.93120 15.58243 34908 ft 481 kts 137°
2026-05-06 16:42 45.88640 15.65082 34905 ft 481 kts 138°
2026-05-06 16:42 45.84038 15.72088 34898 ft 480 kts 138°
2026-05-06 16:43 45.79485 15.79006 34900 ft 480 kts 138°
2026-05-06 16:43 45.74901 15.85949 34898 ft 479 kts 138°
2026-05-06 16:44 45.70313 15.92880 34897 ft 481 kts 138°
2026-05-06 16:44 45.65741 15.99771 34894 ft 480 kts 139°
2026-05-06 16:45 45.61129 16.06703 34897 ft 483 kts 139°
2026-05-06 16:45 45.56510 16.13630 34896 ft 484 kts 139°
2026-05-06 16:46 45.51881 16.20553 34894 ft 482 kts 139°
2026-05-06 16:46 45.47252 16.27459 34896 ft 483 kts 139°
2026-05-06 16:47 45.42600 16.34381 34894 ft 484 kts 138°
2026-05-06 16:47 45.37971 16.41251 34896 ft 483 kts 138°
2026-05-06 16:48 45.33310 16.48153 34898 ft 484 kts 138°
2026-05-06 16:48 45.28673 16.55000 34901 ft 486 kts 138°
2026-05-06 16:49 45.23980 16.61912 34909 ft 485 kts 138°
2026-05-06 16:49 45.19308 16.68701 34911 ft 484 kts 142°
2026-05-06 16:50 45.14392 16.75213 34910 ft 484 kts 142°
2026-05-06 16:50 45.09489 16.81709 34919 ft 484 kts 142°
2026-05-06 16:51 45.04594 16.88181 34924 ft 484 kts 142°
2026-05-06 16:51 44.99662 16.94690 34935 ft 485 kts 142°
2026-05-06 16:52 44.94760 17.01143 34936 ft 484 kts 142°
2026-05-06 16:52 44.89930 17.07485 34941 ft 488 kts 141°
2026-05-06 16:53 44.84943 17.14021 34948 ft 488 kts 142°
2026-05-06 16:53 44.79981 17.20507 34931 ft 488 kts 142°
2026-05-06 16:54 44.75029 17.26960 34939 ft 490 kts 142°
2026-05-06 16:54 44.70020 17.33474 34944 ft 491 kts 141°
2026-05-06 16:55 44.65003 17.39984 34970 ft 489 kts 142°
2026-05-06 16:55 44.60009 17.46446 34971 ft 492 kts 142°
2026-05-06 16:56 44.54989 17.52926 34969 ft 492 kts 141°
2026-05-06 16:56 44.49941 17.59427 34979 ft 494 kts 142°
2026-05-06 16:57 44.44901 17.65902 34971 ft 493 kts 142°
2026-05-06 16:57 44.39875 17.72343 34969 ft 493 kts 142°
2026-05-06 16:58 44.35117 17.79267 34986 ft 500 kts 134°
2026-05-06 16:58 44.30654 17.86770 34972 ft 501 kts 134°
2026-05-06 16:59 44.26235 17.94193 34979 ft 501 kts 134°
2026-05-06 16:59 44.21795 18.01641 34986 ft 502 kts 134°
2026-05-06 17:00 44.17330 18.09110 34993 ft 502 kts 133°
2026-05-06 17:00 44.12875 18.16548 34998 ft 505 kts 134°
2026-05-06 17:01 44.08375 18.24039 35000 ft 504 kts 133°
2026-05-06 17:01 44.03883 18.31501 35004 ft 505 kts 133°
2026-05-06 17:02 43.99391 18.38942 35013 ft 504 kts 133°
2026-05-06 17:02 43.94876 18.46402 35012 ft 507 kts 133°
2026-05-06 17:03 43.90359 18.53846 35014 ft 506 kts 133°
2026-05-06 17:03 43.85831 18.61288 35028 ft 507 kts 133°
2026-05-06 17:04 43.81299 18.68716 35009 ft 507 kts 134°
2026-05-06 17:04 43.76734 18.76183 35011 ft 507 kts 134°
2026-05-06 17:05 43.72192 18.83591 35016 ft 506 kts 134°
2026-05-06 17:05 43.67656 18.90970 35041 ft 508 kts 133°
2026-05-06 17:06 43.63067 18.98419 35030 ft 508 kts 134°
2026-05-06 17:06 43.58505 19.05801 35043 ft 508 kts 133°
2026-05-06 17:07 43.53886 19.13152 35042 ft 507 kts 137°
2026-05-06 17:07 43.48623 19.19487 35055 ft 504 kts 143°
2026-05-06 17:07 43.45914 19.22602 35315 ft 504 kts 143°
2026-05-06 17:08 43.43230 19.25672 35647 ft 502 kts 143°
2026-05-06 17:08 43.40546 19.28727 36058 ft 499 kts 143°
2026-05-06 17:08 43.37889 19.31740 36251 ft 500 kts 143°
2026-05-06 17:08 43.35218 19.34765 36561 ft 498 kts 143°
2026-05-06 17:09 43.32552 19.37777 36907 ft 496 kts 143°
2026-05-06 17:09 43.29888 19.40784 37070 ft 496 kts 143°
2026-05-06 17:09 43.27220 19.43788 37067 ft 497 kts 143°
2026-05-06 17:10 43.21848 19.49828 37074 ft 497 kts 143°
2026-05-06 17:10 43.16524 19.55800 37069 ft 496 kts 143°
2026-05-06 17:11 43.11174 19.61785 37072 ft 498 kts 143°
2026-05-06 17:11 43.05806 19.67778 37056 ft 498 kts 144°
2026-05-06 17:12 43.00423 19.73772 37069 ft 501 kts 144°
2026-05-06 17:12 42.95006 19.79790 37063 ft 500 kts 143°
2026-05-06 17:13 42.89782 19.85582 37084 ft 499 kts 144°
2026-05-06 17:13 42.84254 19.91695 37088 ft 500 kts 143°
2026-05-06 17:14 42.78881 19.97623 37097 ft 501 kts 143°
2026-05-06 17:14 42.73722 20.03986 37127 ft 505 kts 132°
2026-05-06 17:15 42.69218 20.11362 37114 ft 506 kts 131°
2026-05-06 17:15 42.64729 20.18735 37105 ft 505 kts 131°
2026-05-06 17:16 42.60286 20.26037 37087 ft 504 kts 131°
2026-05-06 17:16 42.55802 20.33391 37065 ft 503 kts 131°
2026-05-06 17:17 42.51337 20.40698 37065 ft 505 kts 131°
2026-05-06 17:17 42.46870 20.47993 37051 ft 502 kts 131°
2026-05-06 17:18 42.42424 20.55235 37161 ft 506 kts 131°
2026-05-06 17:18 42.37970 20.62475 37053 ft 498 kts 131°
2026-05-06 17:19 42.33531 20.69670 37048 ft 502 kts 131°
2026-05-06 17:19 42.29038 20.76936 36792 ft 499 kts 131°
2026-05-06 17:19 42.26831 20.80500 37038 ft 496 kts 132°
2026-05-06 17:20 42.24630 20.84048 36930 ft 499 kts 132°
2026-05-06 17:20 42.20139 20.91275 36926 ft 502 kts 131°
2026-05-06 17:21 42.15663 20.98460 36927 ft 501 kts 131°
2026-05-06 17:21 42.11135 21.05542 36935 ft 499 kts 137°
2026-05-06 17:22 42.06133 21.11993 36956 ft 500 kts 138°
2026-05-06 17:22 42.01094 21.18424 36968 ft 500 kts 139°
2026-05-06 17:23 41.96045 21.24829 36982 ft 500 kts 138°
2026-05-06 17:23 41.90989 21.31224 36997 ft 500 kts 138°
2026-05-06 17:24 41.85937 21.37596 37356 ft 501 kts 138°
2026-05-06 17:24 41.80862 21.43982 37359 ft 498 kts 138°
2026-05-06 17:25 41.75816 21.50315 37322 ft 499 kts 138°
2026-05-06 17:25 41.70758 21.56649 37276 ft 500 kts 138°
2026-05-06 17:26 41.65704 21.62965 37227 ft 499 kts 138°
2026-05-06 17:26 41.60644 21.69273 37159 ft 499 kts 139°
2026-05-06 17:27 41.55545 21.75616 37094 ft 500 kts 139°
2026-05-06 17:27 41.50474 21.81911 37043 ft 499 kts 139°
2026-05-06 17:28 41.45420 21.88170 37044 ft 499 kts 139°
2026-05-06 17:28 41.40345 21.94440 37037 ft 499 kts 139°
2026-05-06 17:29 41.35245 22.00727 37043 ft 500 kts 139°
2026-05-06 17:29 41.30144 22.07002 37046 ft 500 kts 139°
2026-05-06 17:30 41.25074 22.13223 37061 ft 500 kts 139°
2026-05-06 17:30 41.19951 22.19496 37072 ft 501 kts 138°
2026-05-06 17:31 41.14771 22.25661 37079 ft 499 kts 142°
2026-05-06 17:31 41.09356 22.31453 37077 ft 500 kts 142°
2026-05-06 17:32 41.03958 22.37246 37066 ft 501 kts 142°
2026-05-06 17:32 40.98542 22.43050 37058 ft 502 kts 142°
2026-05-06 17:33 40.95169 22.46660 36748 ft 502 kts 142°
2026-05-06 17:33 40.92719 22.49282 37067 ft 497 kts 142°
2026-05-06 17:33 40.90018 22.52166 36991 ft 501 kts 142°
2026-05-06 17:34 40.84801 22.57728 37005 ft 500 kts 142°
2026-05-06 17:34 40.79355 22.63524 36982 ft 491 kts 142°
2026-05-06 17:34 40.76765 22.66279 36925 ft 477 kts 143°
2026-05-06 17:35 40.74196 22.69007 36185 ft 476 kts 143°
2026-05-06 17:35 40.71612 22.71744 34352 ft 483 kts 143°
2026-05-06 17:35 40.69019 22.74491 33251 ft 474 kts 143°
2026-05-06 17:36 40.63797 22.80012 31862 ft 492 kts 142°
2026-05-06 17:36 40.61107 22.82852 31164 ft 499 kts 142°
2026-05-06 17:36 40.58414 22.85693 30492 ft 499 kts 142°
2026-05-06 17:36 40.55711 22.88540 29840 ft 497 kts 142°
2026-05-06 17:37 40.53018 22.91375 29220 ft 496 kts 142°
2026-05-06 17:37 40.50323 22.94209 28605 ft 493 kts 142°
2026-05-06 17:37 40.47637 22.96953 28000 ft 486 kts 146°
2026-05-06 17:37 40.44752 22.99200 27410 ft 479 kts 156°
2026-05-06 17:38 40.41696 23.00912 26769 ft 476 kts 160°
2026-05-06 17:38 40.38620 23.02514 26127 ft 472 kts 160°
2026-05-06 17:38 40.35563 23.04082 25500 ft 467 kts 160°
2026-05-06 17:38 40.32550 23.05606 24896 ft 462 kts 160°
2026-05-06 17:39 40.29591 23.07091 24312 ft 459 kts 160°
2026-05-06 17:39 40.26613 23.08579 23732 ft 456 kts 161°
2026-05-06 17:39 40.23649 23.10055 23164 ft 453 kts 160°
2026-05-06 17:39 40.20707 23.11515 22614 ft 449 kts 160°
2026-05-06 17:40 40.17801 23.12956 22053 ft 444 kts 160°
2026-05-06 17:40 40.14938 23.14374 21493 ft 440 kts 160°
2026-05-06 17:40 40.12073 23.15791 20928 ft 435 kts 160°
2026-05-06 17:40 40.09281 23.17170 20384 ft 430 kts 160°
2026-05-06 17:41 40.06491 23.18548 19838 ft 427 kts 160°
2026-05-06 17:41 40.03706 23.19921 19293 ft 424 kts 160°
2026-05-06 17:41 40.00969 23.21269 18752 ft 421 kts 160°
2026-05-06 17:41 39.98238 23.22614 18212 ft 417 kts 160°
2026-05-06 17:42 39.95533 23.23944 17672 ft 413 kts 160°
2026-05-06 17:42 39.92886 23.25245 17142 ft 408 kts 160°
2026-05-06 17:42 39.90269 23.26530 16642 ft 402 kts 160°
2026-05-06 17:42 39.87694 23.27794 16136 ft 398 kts 160°
2026-05-06 17:43 39.85170 23.29032 15638 ft 394 kts 160°
2026-05-06 17:43 39.82592 23.30295 15126 ft 390 kts 159°
2026-05-06 17:43 39.80082 23.31524 14630 ft 386 kts 159°
2026-05-06 17:43 39.77575 23.32750 14132 ft 384 kts 159°
2026-05-06 17:44 39.75099 23.33961 13639 ft 379 kts 159°
2026-05-06 17:44 39.72647 23.35159 13169 ft 376 kts 159°
2026-05-06 17:44 39.70204 23.36350 12726 ft 372 kts 159°
2026-05-06 17:44 39.67814 23.37515 12300 ft 369 kts 159°
2026-05-06 17:45 39.65400 23.38691 11870 ft 367 kts 159°
2026-05-06 17:45 39.63004 23.39857 11429 ft 365 kts 159°
2026-05-06 17:45 39.60664 23.40995 10997 ft 362 kts 159°
2026-05-06 17:45 39.58299 23.42144 10568 ft 359 kts 159°
2026-05-06 17:46 39.55985 23.43267 10280 ft 350 kts 159°
2026-05-06 17:46 39.53807 23.44324 9905 ft 326 kts 159°
2026-05-06 17:46 39.51747 23.45324 9736 ft 296 kts 159°
2026-05-06 17:46 39.49924 23.46208 9740 ft 272 kts 159°
2026-05-06 17:47 39.48110 23.47085 9803 ft 290 kts 159°
2026-05-06 17:47 39.46200 23.48010 9757 ft 288 kts 159°
2026-05-06 17:47 39.44349 23.48905 9755 ft 283 kts 159°
2026-05-06 17:47 39.42482 23.49808 9763 ft 284 kts 159°
2026-05-06 17:48 39.40636 23.50700 9697 ft 288 kts 159°
2026-05-06 17:48 39.38735 23.51620 9290 ft 292 kts 159°
2026-05-06 17:48 39.36853 23.52530 8878 ft 285 kts 159°
2026-05-06 17:48 39.35020 23.53416 8497 ft 277 kts 159°
2026-05-06 17:49 39.33225 23.54283 8123 ft 274 kts 159°
2026-05-06 17:49 39.31431 23.55149 7749 ft 274 kts 159°
2026-05-06 17:49 39.29656 23.56006 7391 ft 273 kts 160°
2026-05-06 17:49 39.27884 23.56861 7036 ft 271 kts 160°
2026-05-06 17:50 39.26122 23.57710 6683 ft 268 kts 160°
2026-05-06 17:50 39.24389 23.58544 6341 ft 266 kts 160°
2026-05-06 17:50 39.22658 23.59378 5997 ft 264 kts 160°
2026-05-06 17:50 39.20941 23.60203 5651 ft 262 kts 160°
2026-05-06 17:51 39.19221 23.60964 5312 ft 259 kts 169°
2026-05-06 17:51 39.17461 23.60876 5008 ft 257 kts 198°
2026-05-06 17:51 39.15807 23.59956 4620 ft 259 kts 205°
2026-05-06 17:51 39.14202 23.58966 4287 ft 256 kts 205°
2026-05-06 17:52 39.12608 23.57998 3860 ft 246 kts 204°
2026-05-06 17:52 39.11126 23.57071 3582 ft 232 kts 204°
2026-05-06 17:52 39.09710 23.56162 3329 ft 221 kts 204°
2026-05-06 17:52 39.08349 23.55278 3112 ft 218 kts 204°
2026-05-06 17:53 39.07015 23.54405 2838 ft 217 kts 204°
2026-05-06 17:53 39.05672 23.53521 2494 ft 209 kts 204°
2026-05-06 17:53 39.04430 23.52699 2328 ft 199 kts 204°
2026-05-06 17:53 39.03211 23.51873 2119 ft 190 kts 211°
2026-05-06 17:54 39.02407 23.50585 1971 ft 187 kts 251°
2026-05-06 17:54 39.02468 23.49004 1895 ft 175 kts 294°
2026-05-06 17:54 39.03317 23.47967 1840 ft 169 kts 341°
2026-05-06 17:54 39.04472 23.47669 1882 ft 174 kts 356°
2026-05-06 17:55 39.05685 23.47537 1818 ft 167 kts 358°
2026-05-06 17:55 39.06793 23.47435 1523 ft 160 kts 358°
2026-05-06 17:55 39.07867 23.47330 1213 ft 150 kts 358°
2026-05-06 17:55 39.08875 23.47231 932 ft 140 kts 360°
2026-05-06 17:56 39.09816 23.47282 708 ft 130 kts
2026-05-06 17:56 39.10738 23.47398 655 ft 138 kts
2026-05-06 17:56 39.11685 23.47616 613 ft 138 kts 18°
2026-05-06 17:56 39.12592 23.47990 569 ft 134 kts 24°
2026-05-06 17:57 39.13463 23.48416 545 ft 133 kts 23°
2026-05-06 17:57 39.14348 23.48829 436 ft 134 kts 23°
2026-05-06 17:57 39.15237 23.49239 266 ft 137 kts 22°
2026-05-06 17:57 39.16125 23.49647 155 ft 136 kts 22°
2026-05-06 17:58 39.17013 23.50047 25 ft 135 kts 21°
2026-05-06 17:58 39.17820 23.50408 58 ft 93 kts 19°
2026-05-06 17:58 39.18243 23.50596 68 ft 41 kts 18°
2026-05-06 17:58 39.18380 23.50655 59 ft 16 kts 17°
2026-05-06 17:59 39.18400 23.50656 58 ft 2 kts 20°
2026-05-06 17:59 39.18399 23.50676 57 ft 2 kts 157°
2026-05-06 17:59 39.18374 23.50664 59 ft 13 kts 204°
2026-05-06 17:59 39.18245 23.50599 68 ft 20 kts 199°
2026-05-06 18:00 39.18112 23.50539 71 ft 23 kts 199°
2026-05-06 18:00 39.17977 23.50477 66 ft 12 kts 208°
2026-05-06 18:00 39.17929 23.50384 65 ft 12 kts 257°
2026-05-06 18:00 39.17935 23.50303 67 ft 6 kts 288°
2026-05-06 18:01 39.17946 23.50260 70 ft 3 kts 288°